Location: Ohmer (historical)
(38.0096°N, 122.0227°W)
Time: 12:35:13
(UTC+00:00)

SL-4 R/B - Pass Details

Date: 14 February 2026
Orbit: 382 x 514 km, 51.6° (Epoch: 16 March)

Event Time Altitude Azimuth Distance (km) Brightness Sun altitude
Exits shadow 14:18:20 10° 300° (WNW) 1,595 3.8 -8.7°
Maximum altitude 14:21:51 52° 223° (SW) 599 2.0 -8.0°
Drops below altitude 10° 14:25:32 10° 147° (SSE) 1,672 5.2 -7.3°
Sets 14:27:47 0° 142° (SE) 2,571 6.3 -6.8°
